Tracking 19248 objects as of 26-Sep-2018
HD Live streaming from Space Station
objects crossing your sky now

FENGYUN 1C DEB

Track FENGYUN 1C DEB now!
10-day predictions


NORAD ID: 30946
Int'l Code: 1999-025BAL
Perigee: 694.6 km
Apogee: 840.1 km
Inclination: 99.0 °
Period: 100.0 minutes
Semi major axis: 7138 km
RCS: 0.0097 m2 (small)
Launch date: May 10, 1999
Source: People's Republic of China (PRC)
Launch site: Taiyaun Space Center, China (TSC)

Note: This is SATELLITE DEBRIS
aabbcc
Your satellite tracking list
Your tracking list is empty




NASA's NSSDC Master Catalog

Two Line Element Set (TLE):
1 30946U 99025BAL 18266.30679094 +.00000333 +00000-0 +11603-3 0  9991
2 30946 099.0221 180.7173 0101940 061.2817 064.0157 14.39480524603477
Source of the keplerian elements: AFSPC